千帆星座-72 (QIANFAN-72)

导读

QIANFAN-72 是中国自主研发的北斗卫星导航系统中的重要成员,主要用于提供高精度定位、导航和授时服务。该卫星采用先进技术和稳定平台,具备更强的信号覆盖能力和抗干扰性能,广泛应用于交通、农业、通信、应急救援等领域。QIANFAN-72 的成功发射进一步提升了北斗系统的全球服务能力,增强了我国在卫星导航领域的自主可控能力,对推动国家信息化建设和国防安全具有重要意义。

基本信息
目录编号:
62802
目录名称:
QIANFAN-72
国际标识:
2025-016T
轨道中心:
EARTH
卫星名称:
千帆星座-72
卫星全名:
千帆星座-72 (QIANFAN-72)
卫星状态:
在轨 (已飞行596 天)
发射日期:
2025-01-23 UTC
国别 :
中国 (CN)
星等 :
--
轨道信息
数据来源 国际轨道数据 AOE轨道数据
星历时间 2026-09-11T00:27:24+0800
8小时前
查看轨道信息
2026-09-10T17:00:00+0800
16小时前
查看轨道信息
半长轴 7446.645km 7446.646km
偏心率 0.0017259 0.0017429
轨道倾角 88.965° 88.960°
近地点辐角 292.546° 293.325°
升交点赤经 74.817° 74.849°
平近点角 67.387° 356.400°
近地点 1055.655km 1055.53km
远地点 1081.361km 1081.488km
周期 106.586分钟 106.586分钟
每日圈数 13.510202 13.5102
详细信息
卫星平台:
72
覆盖范围:
全球
运营商:
上海垣信卫星科技有限公司
运营商所在国:
中国
使用方式:
暂无
卫星简介
千帆星座,也被称为“G60星链”计划,是中国版“星链”的重要组成部分,旨在打造一个由1.4万多颗低轨宽频多媒体卫星构成的庞大星座。千帆星座计划由上海垣信卫星科技有限公司负责实施,于2023年启动建设。该项目是我国第二个低轨卫星大星座,旨在通过构建庞大的卫星网络,为全球用户提供高质量的通信和宽带互联网服务。
2D轨道图
3D轨道图
轨道高度分析图
轨道倾角分析图
轨道综合分析图
查看轨道综合分析图
交会数据列表
事件ID 空间交会对象 最接近时刻(TCA) 交会距离 交会风险概率(CRP) 交会风险指数(CRI) 操作
CDM_260910-041104-339306-280226
2026-09-10T
04:11:25+0000
0.989 km
远距离
2.78725E-5 中风险 0.64
与全量物体交会距离演化趋势
与全量物体交会风险概率演化趋势